Location: Adelsborn
(51.4483°N, 10.3536°E)
Time: 11:01:29
(UTC+00:00)

Daily predictions for brighter satellites

Satellite Brightness Start Highest point End
(mag) Time Altitude Azimuth Time Altitude Azimuth Time Altitude Azimuth
Cosmos 1943 3.4 20:17:43 10° SSW 20:23:24 80° WNW 20:29:06 10° NNE
Okean 1 Rocket 4.5 20:20:24 10° NNW 20:24:34 38° W 20:28:42 10° SSW
USA 267 3.8 20:19:29 10° ENE 20:25:26 36° SE 20:31:20 10° SSW
Cosmos 1953 4.2 20:24:49 10° NNW 20:28:13 28° W 20:31:37 10° SSW
Cosmos 1603 3.9 20:22:45 10° SSW 20:28:28 82° WNW 20:34:16 10° NNE
Cosmos 1455 Rocket 3.1 20:24:28 10° N 20:28:52 87° W 20:33:12 10° S
NOSS 2-1 (C) 4.2 20:25:07 10° NW 20:29:13 60° NE 20:34:53 10° ESE
CZ-4B R/B 2.4 20:29:39 10° N 20:32:26 42° WNW 20:35:11 10° SW
USA 245 4.0 20:29:48 10° S 20:34:46 67° WSW 20:38:47 10° NNW
S3M 4.3 20:31:56 10° SSW 20:38:07 70° WNW 20:44:17 10° N
Cosmos 1025 Rocket 3.0 20:34:45 10° S 20:38:59 70° E 20:43:16 10° NNE
NOSS 2-1 (D) 4.0 20:35:25 10° NW 20:39:35 70° NE 20:45:26 10° SE
Cosmos 1371 Rocket 4.1 20:38:12 10° S 20:43:19 58° ESE 20:48:31 10° NNE
Spot 2 Rocket 3.6 20:38:48 10° SSE 20:43:54 82° WSW 20:49:02 10° NNW
Cosmos 1607 4.2 20:44:00 10° SSW 20:49:56 49° ESE 20:55:52 10° NE
Helios 1A Rocket 3.1 20:46:17 10° S 20:50:20 70° WSW 20:54:26 10° NNW
Cosmos 1455 2.2 20:48:34 10° N 20:52:22 79° E 20:56:08 10° SSE
Cosmos 1980 Rocket 4.1 20:50:01 10° NNW 20:54:34 24° NE 20:59:04 10° E
ATLAS 2AS CENTAUR R/B 2.8 20:47:25 10° NW 20:54:41 86° SW 21:01:13 11° SE
Cosmos 1703 4.5 20:51:47 11° SE 20:54:46 26° E 20:58:00 10° NNE
Cosmos 1536 Rocket 4.2 20:53:22 10° SSE 20:57:21 39° E 21:01:25 10° NNE
Cosmos 1697 Rocket 3.8 20:53:50 10° NNW 20:59:01 36° NE 21:04:11 10° ESE
H-2A R/B 4.5 20:58:00 10° N 21:01:34 25° WNW 21:05:10 10° WSW
USA 234 3.3 20:55:04 10° ESE 21:01:40 88° SW 21:08:16 10° WNW
Lacrosse 4 Rocket 3.4 20:58:44 10° WSW 21:02:27 32° NW 21:06:09 10° NNE
Meteor 1-24 Rocket 3.7 20:58:21 10° SSW 21:03:40 86° WNW 21:09:07 10° NNE
Cosmos 1975 Rocket 3.7 20:59:22 10° SSW 21:03:46 58° WNW 21:08:11 10° N
Cosmos 1624 Rocket 4.0 20:59:29 10° SSW 21:04:43 78° ESE 21:09:57 10° NNE
SPOT 5 3.3 21:01:38 10° S 21:06:00 51° W 21:10:17 10° NNW
Cosmos 2184 Rocket 4.1 21:04:03 10° N 21:10:14 72° ENE 21:15:55 12° SSE
Cosmos 2228 3.4 21:08:46 10° N 21:12:54 48° ENE 21:16:17 14° SSE
CZ-2C R/B 3.7 21:08:56 10° NNE 21:13:37 88° E 21:18:11 10° SSW
RESURS DK-1 3.2 21:13:00 10° NNW 21:16:58 43° NE 21:20:38 12° ESE
Resurs 01 Rocket 4.3 21:15:55 10° WSW 21:17:53 13° W 21:19:53 10° WNW
Cosmos 1544 Rocket 4.2 21:15:56 10° NNW 21:20:09 51° W 21:24:20 10° S
Lacrosse 5 rocket 1.9 21:17:46 10° WNW 21:21:24 40° SW 21:24:15 16° SSE
ATLAS 5 CENTAUR R/B 4.4 21:10:26 10° NW 21:21:44 31° WSW 21:25:56 10° SSW
Cosmos 1656 3.6 21:16:36 10° NNW 21:22:05 84° ENE 21:26:45 15° SSE
Cosmos 2056 Rocket 3.8 21:19:20 10° SSW 21:24:42 77° WNW 21:30:10 10° NNE
Cosmos 1741 Rocket 4.2 21:21:54 10° NNW 21:27:14 71° ENE 21:31:37 15° SE
Cosmos 1726 Rocket 4.4 21:25:32 10° N 21:29:35 38° ENE 21:32:43 15° SE
ERS-1 Rocket 4.0 21:24:56 10° SSW 21:29:39 40° W 21:34:24 10° NNW
Cosmos 1833 Rocket 3.7 21:27:38 15° SSE 21:31:18 29° ESE 21:36:04 10° NE
Lacrosse 5 2.1 21:27:18 10° WNW 21:32:19 58° SW 21:36:18 16° SE
ALOS 2 4.2 21:30:07 10° ESE 21:33:42 25° ENE 21:37:18 10° N
Cosmos 1420 Rocket 4.2 21:30:39 10° SSW 21:35:53 76° WNW 21:41:13 10° NNE
Tiangong 3.2 21:35:01 10° SW 21:36:05 13° SSW 21:36:05 13° SSW
NOSS 2-1 (E) 4.3 21:33:46 10° NW 21:38:11 58° SW 21:43:01 16° SSE
Cosmos 2084 3.1 21:34:53 10° SW 21:38:41 69° SE 21:42:34 10° NE
SL-8 R/B 3.7 21:34:54 10° W 21:39:39 62° S 21:44:25 10° ESE
Cosmos 1271 Rocket 4.3 21:39:52 10° NNW 21:43:25 31° W 21:46:56 10° SSW
Cosmos 2082 Rocket 3.9 21:45:07 13° SE 21:47:47 18° E 21:51:28 10° ENE
FALCON 9 DEB 3.1 21:46:45 10° W 21:50:01 77° N 21:53:18 10° ENE
ARIANE 5 R/B 3.8 21:46:38 11° SSW 21:50:33 37° W 21:54:43 10° NNW
Terra 3.2 21:46:26 10° SSW 21:50:39 31° W 21:54:55 10° NNW
Cosmos 2058 Rocket 3.8 21:51:13 10° N 21:55:24 42° ENE 21:58:21 18° SE
Cosmos 2344 4.2 21:49:30 10° NW 21:58:05 85° NE 22:10:02 10° SE
USA 276 2.8 21:58:53 28° SSE 21:58:53 28° SSE 22:01:18 10° E
Cosmos 1850 Rocket 4.2 21:54:07 10° NNW 21:59:19 66° WSW 22:03:00 19° S
SAR-Lupe-4 3.7 21:57:22 10° NNE 22:00:57 75° WNW 22:03:44 16° SSW
GP-B 3.2 21:59:46 10° N 22:04:12 65° E 22:07:04 21° SSE
Cosmos 1892 Rocket 4.0 22:02:20 21° SSE 22:05:01 48° E 22:09:16 10° NNE
USA 267 3.3 22:02:23 10° ENE 22:08:58 88° SSE 22:15:32 10° WSW
Cosmos 1408 3.2 22:13:04 25° SE 22:14:32 38° E 22:17:46 10° NNE
Spot 4 3.8 22:11:56 21° SSE 22:15:09 86° ENE 22:19:59 10° NNW
COSMOS 2406 3.9 22:13:20 20° SSE 22:16:46 39° ESE 22:22:04 10° NE
Cosmos 1867 4.3 22:13:27 10° NW 22:18:50 51° NE 22:24:08 10° ESE
ASTEX 1 3.5 22:15:41 10° N 22:20:42 75° W 22:24:31 17° SSW
ADEOS Rocket 3.6 22:15:50 17° SSE 22:21:26 69° ENE 22:29:02 10° NNW
Cosmos 1331 Rocket 4.0 22:19:08 17° SSW 22:23:12 72° ESE 22:28:31 10° NNE
Cosmos 2369 3.8 22:17:46 10° NNW 22:23:32 75° ENE 22:27:54 18° SE
TSX-5 4.4 22:19:37 10° SW 22:24:05 84° NW 22:29:56 10° NNE
Nadezhda 1 Rocket 4.2 22:18:57 13° SSW 22:24:31 67° WNW 22:30:35 10° N
Meteor 1-11 4.4 22:22:19 20° S 22:26:08 62° E 22:31:40 10° NNE
Cosmos 1452 Rocket 3.8 22:21:19 10° SSW 22:26:33 69° WNW 22:31:50 10° NNE
SL-16 R/B 3.9 22:22:43 10° NNW 22:27:40 29° NE 22:32:35 10° ESE
Cosmos 1825 3.4 22:26:15 20° SE 22:27:50 28° E 22:31:04 10° NNE
H-2A R/B 3.8 22:26:54 10° NNE 22:31:02 53° E 22:33:15 25° SSE
Cosmos 1328 4.1 22:28:56 19° SSW 22:31:41 66° WNW 22:35:42 10° N
Cosmos 1980 Rocket 2.2 22:33:40 10° NNW 22:39:25 85° ENE 22:43:31 20° SSE
Cosmos 1110 Rocket 4.1 22:37:53 14° SSW 22:42:27 77° WNW 22:47:47 10° NNE
Cosmos 1697 Rocket 3.1 22:37:46 10° NW 22:43:13 52° WSW 22:46:39 22° S
ERS-2 3.0 22:40:19 10° NNE 22:43:38 34° E 22:44:58 25° SE
ATLAS 2AS CENTAUR R/B 4.1 22:39:23 10° WNW 22:44:38 23° WSW 22:48:38 14° SSW
USA 234 4.0 22:41:26 20° S 22:45:11 36° SW 22:51:09 10° WNW
Cosmos 1302 Rocket 4.1 22:43:53 23° S 22:47:03 59° ESE 22:52:10 10° NNE
Cosmos 1892 2.6 22:48:56 28° S 22:50:49 88° E 22:54:36 10° N
SJ 16-02 3.4 22:49:17 10° N 22:52:53 23° NE 22:56:28 10° ESE
RESURS DK-1 3.7 22:51:19 10° NW 22:54:47 26° WSW 22:56:28 20° SSW
In-Cosmos 22 Rocket 4.2 22:52:54 23° S 22:56:33 73° E 23:02:03 10° NNE
SL-8 Rocket 4.2 22:53:46 10° NNW 22:59:59 65° W 23:04:12 21° S
Cosmos 2218 Rocket 4.2 22:59:23 10° NNW 23:05:46 70° W 23:10:07 22° S
Cosmos 2322 Rocket 3.5 23:03:53 10° NNW 23:09:10 38° NE 23:14:28 10° ESE
Cosmos 1758 Rocket 4.4 23:07:07 22° SE 23:09:19 39° E 23:13:23 10° NNE
Cosmos 2278 3.7 23:03:41 10° NNW 23:09:27 87° ENE 23:13:39 19° SSE
ALOS 2 3.2 23:07:30 24° SSW 23:09:49 46° W 23:14:04 10° NNW
Aureole 1 Rocket 4.4 23:03:34 10° NNW 23:10:01 75° ENE 23:16:50 15° SSE
BREEZE-M DEB (TANK) 4.5 22:54:56 10° W 23:12:36 77° SSW 23:17:05 10° ESE
Cosmos 2366 rocket 4.3 23:07:40 10° NNW 23:13:53 62° W 23:18:08 21° SSW
Lacrosse 5 3.7 23:11:46 10° W 23:14:24 14° WSW 23:15:28 13° SW
Cosmos 1833 Rocket 3.2 23:09:22 10° SW 23:14:55 59° NW 23:20:30 10° NNE
Cosmos 2084 Rocket 3.4 23:13:54 10° NW 23:17:43 55° SW 23:19:33 28° SSE
Cosmos 1812 Rocket 3.6 23:13:44 10° N 23:18:15 80° E 23:20:47 26° SSE
SL-8 R/B 4.2 23:17:20 10° W 23:21:48 38° SSW 23:24:36 20° SSE
Geosat FO 4.4 23:21:57 30° SSE 23:23:31 79° WSW 23:27:07 10° NNW
Cosmos 968 Rocket 4.2 23:20:34 10° NW 23:25:24 41° WSW 23:28:10 23° SSW
Cosmos 2221 4.4 23:22:25 10° NNE 23:25:56 24° ENE 23:29:27 10° ESE
FALCON 9 DEB 3.3 23:23:10 10° WNW 23:26:27 70° N 23:29:44 10° E
Cosmos 2082 Rocket 2.2 23:26:56 19° SSW 23:31:05 90° ESE 23:36:50 10° NNE
Resurs 1-4 Rocket 4.3 23:28:47 10° NE 23:31:37 14° E 23:34:26 10° ESE
ATLAS 5 CENTAUR R/B 2.6 23:30:58 21° SE 23:31:54 23° ESE 23:35:11 10° ENE
Cosmos 1633 2.4 23:31:20 33° S 23:32:45 75° E 23:36:15 10° NNE
USA 276 1.7 23:30:50 10° WSW 23:33:43 64° S 23:36:37 10° E
Cosmos 1602 Rocket 3.5 23:32:14 27° S 23:34:34 88° E 23:38:54 10° N
BREEZE-M DEB (TANK) 4.1 23:31:26 10° W 23:35:12 67° S 23:51:15 10° ESE
Cosmos 1869 4.3 23:37:15 10° NNW 23:40:45 33° W 23:42:27 23° SW
Cosmos 1486 Rocket 4.1 23:38:40 10° NNW 23:43:48 60° WSW 23:46:53 24° S
Cosmos 2360 Rocket 3.1 23:45:25 10° NNW 23:50:56 48° NE 23:56:25 10° SE
USA 267 3.9 23:45:25 10° ENE 23:51:49 58° N 23:58:13 10° W
Cosmos 1934 Rocket 4.0 23:47:09 10° N 23:53:15 74° E 23:57:56 18° SSE
Cosmos 1238 4.0 23:55:46 36° SSW 23:56:52 86° W 23:59:57 10° N
